Temp_Advection
nan nan nan nan nan nan nan nan nan nan nan nan nan nan nan nan nan nan nan nan nan nan nan nan nan nan nan nan nan nan nan nan nan nan nan nan nan nan nan nan nan nan nan nan nan nan nan nan nan nan nan nan nan nan nan nan nan nan nan nan nan nan nan nan nan nan nan nan nan nan nan nan nan nan
nan 0 0 0 -0 -0 -0 -0 -0 -0 -0 -0 -0 0 0 0 -0 -0 0 0 0 -0 -0 -0 0 -0 -0 0 0 0 0 0 0 0 0 -0 -0 -0 0 0 0 -0 -0 -0 -0 -0 -0 -0 -0 -0 0 0 0 0 -0 -0 -0 -0 -0 -0 -0 -0 -0 -0 -0 -0 -0 -0 -0 -0 -0 -0 -0 nan
nan -0 -0 -0 -0 0 0 -0 -0 -0 0 -0 0 0 0 0 0 0 -0 0 0 -0 -0 -0 -0 -0 -0 -0 0 0 0 0 0 0 -0 -0 -0 -0 -0 -0 -0 -0 -0 -0 0 0 0 0 0 0 0 0 0 0 0 -0 -0 -0 -0 -0 -0 -0 -0 -0 -0 -0 -0 -0 -0 -0 -0 -0 -0 nan
nan -0 -0 0 0 0 -0 -0 -0 0 0 -0 0 0 0 0 0 -0 -0 -0 -0 -0 -0 -0 -0 -0 -0 -0 -0 -0 0 0 0 0 -0 -0 -0 -0 -0 -0 -0 -0 -0 0 0 0 0 0 0 0 0 0 0 0 0 0 -0 -0 -0 -0 -0 -0 -0 -0 -0 -0 -0 -0 -0 -0 -0 -0 -0 nan
nan 0 0 0 0 0 -0 -0 -0 0 -0 -0 0 0 -0 -0 -0 -0 -0 -0 -0 -0 -0 -0 -0 -0 -0 -0 -0 -0 0 0 0 0 -0 -0 0 0 0 0 0 0 0 0 0 0 0 0 0 0 0 0 0 0 0 0 0 0 -0 -0 -0 -0 -0 -0 -0 -0 -0 -0 -0 -0 -0 -0 -0 nan
nan 0 0 0 0 0 -0 -0 0 0 0 0 0 0 -0 -0 -0 -0 -0 -0 -0 0 0 0 0 -0 -0 -0 -0 0 0 0 0 -0 -0 0 0 0 0 -0 -0 0 0 0 0 0 0 0 0 0 0 0 0 0 0 0 0 0 0 0 -0 -0 -0 -0 -0 -0 -0 -0 -0 -0 -0 -0 -0 nan
nan 0 0 0 -0 -0 -0 -0 0 0 0 0 0 0 0 -0 -0 -0 -0 0 -0 0 0 0 0 0 -0 -0 0 0 0 -0 -0 -0 -0 -0 -0 -0 -0 -0 -0 -0 0 0 0 0 0 0 0 0 0 0 0 0 0 0 0 0 0 0 0 0 0 0 -0 -0 0 0 0 -0 -0 -0 -0 nan
nan 0 0 -0 -0 -0 -0 -0 0 0 0 0 0 0 0 0 0 -0 -0 0 -0 -0 -0 -0 0 0 0 -0 0 0 0 -0 -0 -0 -0 -0 -0 -0 -0 -0 0 -0 -0 0 0 0 0 0 0 0 0 0 0 0 0 0 0 0 0 0 0 0 0 -0 -0 0 0 0 0 0 0 -0 -0 nan
nan 0 0 -0 -0 -0 -0 -0 0 0 -0 -0 -0 -0 -0 -0 -0 -0 -0 -0 -0 -0 -0 -0 0 0 -0 -0 -0 0 0 0 -0 -0 -0 -0 -0 -0 -0 0 0 0 0 0 0 0 0 0 0 0 0 0 0 0 0 0 0 0 0 0 0 0 0 0 0 0 0 0 0 0 0 0 0 nan
nan 0 -0 -0 -0 -0 -0 -0 0 0 -0 -0 -0 -0 -0 -0 -0 -0 -0 0 -0 -0 0 0 0 -0 -0 0 0 0 0 0 0 -0 -0 -0 0 0 0 0 0 0 0 0 0 0 0 0 0 0 0 0 0 0 0 0 0 0 0 0 0 0 0 0 0 0 0 0 0 0 0 0 0 nan
nan 0 0 0 0 -0 -0 0 -0 -0 -0 -0 -0 -0 -0 -0 -0 -0 0 0 -0 -0 -0 -0 -0 -0 -0 0 0 0 0 -0 -0 0 0 0 0 0 0 0 0 0 0 0 0 0 -0 -0 0 0 0 0 0 0 0 0 0 0 0 0 0 0 0 0 0 0 0 0 0 0 0 1 0 nan
nan 0 0 0 0 0 0 -0 -0 -0 -0 -0 -0 -0 -0 -0 -0 -0 0 0 0 0 -0 -0 0 0 -0 -0 0 0 0 -0 0 0 0 -0 0 0 -0 -0 0 0 0 0 0 0 0 -0 0 0 0 0 0 0 0 0 0 0 0 0 0 0 0 0 0 0 1 1 1 1 1 1 0 nan
nan -0 -0 0 0 0 0 -0 -0 -0 -0 -0 -0 -0 -0 -0 -0 0 0 0 0 0 -0 0 0 0 0 0 -0 0 0 -0 0 0 0 -0 0 0 -0 0 0 -0 0 0 0 0 0 -0 0 0 -0 0 0 0 0 0 0 0 0 0 0 0 0 0 0 1 1 1 1 1 1 1 0 nan
nan -0 0 0 0 0 0 0 -0 0 0 0 0 0 0 -0 0 0 0 0 0 0 0 0 0 0 0 0 0 0 0 0 0 0 0 0 0 -0 -0 0 0 0 -0 -0 -0 0 0 -0 -0 0 -0 0 1 0 0 0 0 0 0 0 1 1 1 0 0 1 1 1 1 1 0 0 0 nan
nan 0 0 0 0 0 0 0 0 0 0 0 0 0 0 0 0 0 0 0 0 0 0 0 0 0 0 0 0 0 0 0 0 0 0 0 0 -0 -0 -0 0 0 -0 -0 -0 0 1 0 -0 -0 0 1 1 0 -0 -0 -0 0 0 1 1 1 0 0 0 0 1 1 1 1 1 1 1 nan
nan 0 0 0 0 0 0 0 0 0 0 0 0 0 0 0 0 0 0 0 0 0 0 0 0 0 0 0 0 0 -0 -0 -0 -0 -0 0 0 -0 -0 -0 0 0 -0 -0 -1 -0 0 0 -0 -0 -0 1 1 0 -0 -0 -0 -0 0 0 1 1 0 0 -0 -0 1 1 1 1 1 1 0 nan
nan 0 0 0 0 0 0 0 0 0 0 0 0 0 0 0 0 0 0 0 0 0 0 0 0 0 -0 -0 -0 -0 -0 -0 -0 -0 -0 -0 -0 -0 -0 -0 0 0 -0 -0 -1 -1 -0 0 -0 -0 -0 0 1 0 0 -0 -0 -0 -0 -0 0 0 0 0 -0 -0 0 0 0 0 1 1 1 nan
nan 0 0 0 0 0 0 0 0 0 0 0 0 0 0 0 0 0 0 0 0 0 0 0 0 0 -0 -0 -0 -0 -0 -0 -0 -0 -0 -0 -0 -0 -0 -0 -0 -0 -0 -0 -0 -1 -0 -0 -0 -0 -0 -0 0 0 0 0 -0 -0 -0 -0 -0 -0 0 0 -0 -0 0 0 -0 -0 0 1 1 nan
nan 0 0 0 0 0 0 -0 0 0 0 0 0 0 0 0 0 0 0 0 0 0 0 0 0 0 -0 -0 -0 -0 -0 -0 -0 -0 -0 -0 -0 -0 -0 -0 -0 -0 -0 -0 -0 -0 -0 -0 -0 -0 -0 -0 -0 -0 -0 -0 -0 -0 -0 -0 -0 -0 -0 -0 0 0 0 0 0 0 0 1 2 nan
nan 0 0 0 0 0 0 0 0 0 0 0 0 0 -0 -0 -0 -0 -0 0 0 0 0 0 0 0 0 -0 -0 -0 -0 -0 -0 -0 -0 -0 -0 -0 -0 0 0 -0 -0 -0 -0 -0 -0 -0 -1 -0 -0 -0 -1 -0 -0 -0 -0 -0 -0 -0 -0 -0 -0 -0 -0 -0 -0 0 0 1 1 1 2 nan
nan 0 0 0 0 0 0 0 0 0 0 0 0 -0 -0 -0 -0 -0 -0 -0 -0 -0 -0 -0 -0 0 -0 -0 -0 -0 -0 -0 -0 -0 0 -0 -0 -0 0 0 0 0 -0 -0 -0 -0 -0 -0 -1 -1 -0 -0 -0 -0 -0 -0 -0 -0 -0 -0 -0 -0 -0 -0 -0 -0 -0 -0 0 0 1 1 1 nan
nan 0 0 0 0 0 0 0 0 0 0 -0 -0 0 0 0 0 -0 -0 -0 -0 -0 -0 -0 -0 0 0 -0 -0 -0 -0 -0 -0 -0 0 0 -0 -0 -0 -0 -0 -0 -0 -0 -0 -0 -0 -0 -1 -1 -1 -1 -1 -1 -1 -1 -1 -1 -1 -1 -1 -1 -0 -0 -0 -0 0 -0 -0 0 1 1 1 nan
nan 0 0 0 0 0 0 0 0 0 0 -0 -0 -0 0 0 0 0 0 0 -0 -0 -0 -0 -0 -0 0 0 -0 -0 -0 -0 -0 -0 -0 -0 -0 -0 0 -0 -0 -0 -0 -0 -0 -0 -0 -0 -0 -1 -1 -1 -1 -1 -1 -1 -1 -1 -1 -1 -1 -1 -1 -1 -0 -0 -0 0 0 0 1 1 1 nan
nan 0 0 0 0 0 0 0 0 0 0 0 -0 -0 -0 -0 0 0 0 0 0 -0 -0 -0 -0 -0 -0 -0 -0 -0 -0 -0 -0 -0 -0 -0 -0 -0 -0 -0 -0 -0 -0 -0 -0 -0 -0 -0 -0 -0 -0 -1 -1 -1 -1 -1 -1 -1 -1 -1 -1 -1 -1 -1 -0 -0 -0 -0 0 0 1 1 1 nan
nan 0 0 0 0 0 0 0 0 0 0 0 0 -0 -0 0 0 0 0 0 0 -0 -0 -0 -0 -0 -0 -0 -0 -0 -0 -0 -0 -0 -0 -0 -0 -0 -0 -0 -0 -0 -0 -0 -0 -0 -0 -0 -0 -0 -0 -0 -0 -1 -1 -1 -1 -1 -1 -1 -1 -1 -1 -1 -1 -0 -0 -0 0 0 1 1 0 nan
nan 0 0 0 0 0 0 0 0 0 0 0 -0 -0 0 0 0 0 0 0 -0 -0 -0 -0 -0 -0 -0 -0 -0 -0 -0 -0 -0 -0 -0 -0 -0 -0 -0 -0 -0 -0 -0 -0 -0 -0 -0 -0 -1 -1 -1 -1 -1 -1 -1 -1 -1 -1 -1 -1 -1 -1 -1 -1 -1 -0 -0 -0 -0 0 0 0 0 nan
nan 0 0 0 0 0 0 0 0 0 0 0 0 0 0 0 0 0 -0 -0 -0 -0 -0 -0 -0 -0 -0 -0 -0 -0 -0 -0 -0 -0 -0 -0 -0 -0 -0 -0 -0 -0 -0 -0 -0 -0 -0 -1 -1 -1 -1 -1 -1 -1 -1 -1 -1 -1 -0 -0 -0 -0 -0 -0 -0 -0 -0 0 0 0 0 0 0 nan
nan 0 0 0 0 0 0 0 0 0 0 0 0 0 0 0 0 0 -0 -0 -0 -0 -0 -0 -0 -0 -0 -0 -0 -0 -0 -0 -0 -0 -0 -0 -0 -0 -0 -0 -0 -0 -0 -0 -0 -0 -0 -0 -0 -0 -0 -1 -1 -1 -1 -1 -1 -1 -1 -0 -0 -0 -0 -0 -0 -0 0 0 0 0 0 0 0 nan
nan 0 0 0 0 0 0 0 0 0 0 0 0 0 0 0 -0 -0 -0 -0 -0 -0 -0 -0 -0 -0 -0 -0 -0 -0 -0 -0 -0 -0 -0 -0 -0 -0 -0 -0 -0 -0 -0 -0 -0 -0 -0 -0 -0 -0 -0 -0 -0 -0 -1 -0 -0 -1 -1 -1 -0 -0 -0 -0 -0 -0 0 0 0 0 0 0 0 nan
nan 1 1 0 0 0 0 0 0 0 0 0 0 0 -0 -0 -0 -0 -0 -0 -0 -0 -0 -0 -0 -0 -0 -0 -0 -0 -0 -0 -0 -0 -0 -0 -0 -0 -0 -0 -0 -0 -0 -0 -0 -0 -0 -0 -0 -0 -0 -0 -0 -0 -0 -0 -0 -0 -1 -1 -1 -1 -0 -0 -0 -0 -0 -0 0 0 0 0 0 nan
nan 0 0 0 0 0 0 0 0 0 0 0 0 -0 -0 -0 -0 -0 -0 -0 -0 -0 -0 -0 -0 -1 -1 -1 -0 -0 -0 -0 -0 0 0 -0 -0 -0 -0 -0 -0 -0 -0 -0 -0 -0 -0 -0 -0 -0 -0 -0 -0 -0 -0 -0 -0 -0 -0 -0 -1 -1 -1 -1 -0 -0 -0 -0 -0 -0 0 0 0 nan
nan 0 0 0 0 0 0 0 0 0 -0 -0 -0 -0 -0 -0 -0 -0 -0 -0 -0 -1 -1 -1 -1 -1 -0 -0 -0 -0 -0 0 -0 -0 -0 -0 -0 -0 -0 -0 -0 -0 -0 -0 -0 -0 -0 -0 -0 -1 -1 -0 -0 -0 -0 -0 -0 -0 -0 -0 -0 -0 -1 -1 -1 -1 -0 -0 0 -0 -0 0 0 nan
nan 0 0 0 0 0 0 0 0 0 -0 -0 -0 -0 -0 -0 -0 -0 -0 -0 -1 -1 -0 -0 -0 -0 -0 -0 -0 -0 -0 -0 -0 -0 -0 -0 -0 -0 -0 -0 -0 -0 -0 -0 -0 -0 -0 -0 -0 -0 -0 -0 -0 -0 -0 -0 -0 -0 -0 -0 -0 -0 -0 -0 -0 -1 -0 -0 0 0 0 0 0 nan
nan 0 0 0 0 0 0 0 0 -0 -0 -0 -0 -0 -0 -0 -0 -0 -0 -0 -1 -0 -0 -0 -0 -0 -0 -0 -0 -0 -0 -0 -0 -0 -0 -0 -0 -0 -0 -0 -0 -0 -0 -0 -0 -0 -0 -0 -0 -0 0 -0 -0 -0 -0 -1 -1 -0 -0 -0 -0 -0 -0 -0 -0 -0 -0 -0 -0 -0 0 0 0 nan
nan 0 0 0 0 0 0 0 -0 -0 -0 -0 -0 -0 -0 -0 -0 -0 -0 -1 -0 -0 -0 -0 -0 -0 -0 -0 -0 -0 -0 -0 -0 -0 -0 -0 -0 -0 -0 -0 -0 -0 -0 -0 -1 -1 -1 -1 -1 -1 -1 -0 -0 -0 -0 -0 -1 -1 -0 -0 -0 -0 -0 -0 -0 -0 -0 -0 -0 -0 -0 -0 0 nan
nan 0 0 0 0 0 0 -0 -0 -0 -0 -0 -0 -0 -0 -0 -0 -0 -0 -0 -0 -0 -0 -0 -0 -0 -0 -0 -0 -0 -0 -1 -0 -0 -0 -0 -0 -0 -0 -0 -0 -0 -0 -1 -1 -1 -1 -1 -1 -1 -1 -1 -1 -1 -0 -0 -0 -0 -1 -0 -0 -0 -0 -0 -0 -0 -0 -0 -0 -0 -0 -0 0 nan
nan 0 0 0 0 0 -0 -0 -0 -0 -0 -0 -0 -0 -0 -0 -0 -0 -0 -0 -0 -0 -0 -0 -0 -0 -0 -0 -0 -0 -0 -0 -0 -0 -0 -0 -0 -0 -0 -0 -0 -0 -0 -0 -0 -0 -0 -0 -0 -0 -1 -1 -1 -1 -1 -0 0 0 -0 -0 -0 -0 -0 -0 -0 0 -0 -0 -0 -0 -0 -0 0 nan
nan 0 0 0 0 0 0 0 0 -0 -0 -0 -0 -0 0 0 -0 -0 -0 -0 -0 -0 -0 -0 -0 -0 -0 -0 -0 -0 -0 -0 -0 -0 -0 -0 -0 -0 -0 -0 -0 -0 -0 -0 -0 -0 -0 -0 -0 -0 -0 -0 -0 -0 -1 -1 -0 0 0 -0 -0 -0 -0 -0 -0 0 0 -0 -0 -0 -0 -0 0 nan
nan 0 0 0 0 0 0 0 -0 -0 -0 -0 -0 0 0 -0 -1 -1 -0 -0 -0 -0 0 0 -0 -0 -0 -0 -0 -0 -0 -0 -0 -0 -0 -0 -0 -0 -0 -0 -0 -0 -0 -0 -0 -0 -0 -0 -0 -0 -0 -0 -0 -0 -0 -0 -0 0 0 0 -0 -0 -0 -0 -0 0 0 0 -0 -0 -0 -0 -0 nan
nan 0 0 0 0 0 0 -0 -0 0 0 -0 -0 -0 -0 -0 -1 -0 -0 -0 0 0 0 -0 -0 -0 -0 -0 -0 -0 -0 -0 -0 -0 -0 -0 -0 -0 -0 -0 -0 -0 -0 -0 -0 -0 -0 -0 -0 -0 -0 -0 0 0 0 0 0 0 0 0 0 -0 -0 -0 -0 -0 0 0 0 0 0 -0 -0 nan
nan 0 0 0 0 0 0 0 0 0 -0 -0 -0 -0 -0 -0 -0 -0 -0 -0 -0 0 0 -0 -0 -0 -0 -0 -0 -0 -0 -0 -0 -0 -0 -0 -0 -0 -0 -0 -0 -0 -0 -0 -0 -0 -0 -0 0 0 0 0 0 0 0 0 -0 -0 -0 0 0 0 -0 -0 -0 -0 -0 0 0 0 0 -0 -0 nan
nan 0 0 0 0 0 0 0 -0 -0 -0 -0 -0 -0 -0 0 0 -0 -0 -0 -0 0 0 -0 -0 -0 -0 -0 -0 -0 -0 -0 -0 -0 -0 0 0 0 0 -0 -0 -0 -0 -0 -0 -0 0 0 0 0 0 0 0 0 -0 -0 -0 -0 -0 -0 0 0 0 0 -0 -0 -0 -0 0 0 -0 -0 -0 nan
nan 0 0 0 0 0 0 -0 -0 -0 -0 -0 -0 -0 0 0 -0 -0 -0 -0 -0 -0 -0 -0 -0 -0 -0 -0 -0 -0 -0 -0 -0 -0 0 0 0 -0 -0 -0 0 0 -0 -0 -0 0 0 0 0 0 0 0 0 -0 -0 -0 -0 -0 -0 -0 -0 -0 0 0 0 0 -0 -0 -0 -0 -0 -0 -0 nan
nan 0 0 0 0 0 -0 -0 -0 -0 -0 -0 -0 -0 -0 -0 -0 -0 -0 -0 -0 -0 -0 -0 -0 -0 -0 -0 -0 -0 -0 -0 -0 0 0 -0 -0 -0 -0 -0 0 0 -0 -0 0 0 0 0 0 0 -0 -0 -0 -0 -0 -0 -0 -0 -0 -0 -0 -0 -0 -0 0 0 0 0 -0 0 0 -0 -0 nan
nan nan nan nan nan nan nan nan nan nan nan nan nan nan nan nan nan nan nan nan nan nan nan nan nan nan nan nan nan nan nan nan nan nan nan nan nan nan nan nan nan nan nan nan nan nan nan nan nan nan nan nan nan nan nan nan nan nan nan nan nan nan nan nan nan nan nan nan nan nan nan nan nan nan
Wind_Speed
12 11 10 9 9 9 9 7 6 6 6 7 8 6 6 8 7 7 8 8 9 10 9 8 6 4 6 7 7 6 5 4 3 1 1 2 1 0 0 1 2 3 4 4 4 4 4 3 3 2 2 1 0 0 0 1 1 2 3 3 4 4 5 5 6 6 7 7 8 8 8 9 9 9
13 13 11 10 9 9 9 8 7 6 6 8 8 6 6 8 7 5 4 4 7 11 10 9 7 6 7 6 6 6 6 5 3 1 1 1 1 1 1 1 2 3 4 4 4 4 4 4 3 3 2 2 1 0 0 1 2 3 4 4 5 5 6 6 7 7 7 8 9 9 9 10 10 10
14 13 12 11 10 9 9 8 7 7 6 8 9 7 7 8 7 6 4 3 5 11 10 9 8 6 6 5 5 5 5 5 3 1 1 2 2 1 1 1 1 1 3 3 3 4 4 4 4 3 3 3 2 1 1 2 3 4 4 5 5 6 6 7 7 8 9 9 10 10 11 11 11 12
13 13 12 12 11 10 9 9 8 8 7 8 9 8 8 8 6 5 3 1 5 11 11 9 7 6 5 4 3 4 5 4 2 0 1 2 2 1 1 0 0 1 2 3 3 4 5 5 4 4 4 3 2 2 2 3 4 4 5 5 6 7 7 8 8 9 10 10 11 11 12 12 12 13
12 12 12 12 11 10 10 10 10 9 8 9 10 9 9 8 6 5 4 4 8 11 10 8 6 5 3 2 2 2 3 4 3 1 1 1 1 1 1 1 1 1 2 3 4 4 5 5 5 5 5 5 4 3 4 5 5 6 6 6 7 7 7 8 9 9 10 11 12 12 13 13 14 14
12 12 12 11 11 11 11 11 10 9 8 9 10 11 10 9 7 7 7 7 9 9 8 6 4 3 2 2 1 1 3 4 4 3 3 2 2 2 1 1 1 1 2 3 4 5 5 5 6 6 7 6 6 5 5 6 6 7 7 7 7 8 8 9 9 10 11 12 13 13 14 15 16 16
11 11 11 12 12 12 12 11 10 9 9 9 9 10 10 9 9 10 9 7 7 6 5 5 4 2 1 1 0 2 2 4 5 5 4 3 3 3 2 1 2 2 3 3 5 6 7 7 8 9 9 9 8 7 7 7 7 8 8 9 10 10 11 11 12 13 13 14 15 16 16 17 18 18
10 10 11 12 13 12 12 11 10 9 9 10 10 9 9 9 10 10 9 7 5 3 3 3 4 3 2 1 1 2 2 2 4 4 3 3 3 3 2 2 2 3 4 5 6 7 8 9 10 11 11 11 11 10 10 10 10 10 11 12 13 14 14 15 16 16 17 18 19 19 20 20 20 20
10 11 12 13 13 12 12 11 10 9 9 10 9 8 8 8 9 10 9 7 5 3 2 2 2 3 2 1 2 2 2 1 2 3 2 2 2 2 2 2 3 4 5 6 7 9 10 10 12 12 13 14 14 15 14 14 15 15 15 16 16 17 18 19 19 20 21 21 22 22 22 22 22 22
11 11 12 13 12 12 12 11 10 9 10 10 10 8 7 7 8 8 8 7 6 4 3 2 2 3 2 2 2 3 3 3 3 3 4 4 4 5 6 6 7 7 8 8 9 10 11 12 14 14 16 17 17 18 18 19 19 20 20 20 21 21 22 22 23 24 24 24 25 25 25 24 24 23
11 11 12 12 12 12 12 12 11 11 11 10 9 8 6 6 6 7 7 7 7 6 5 4 4 4 3 2 3 4 5 6 6 6 6 7 7 8 9 9 10 11 11 11 12 12 13 14 15 16 18 19 19 20 21 22 23 23 24 25 25 26 27 27 28 28 28 28 28 28 27 27 25 24
11 11 11 11 11 12 12 13 13 11 10 9 8 7 6 7 7 7 7 7 7 6 6 5 5 5 5 4 5 6 7 7 8 8 9 9 10 11 12 12 12 13 14 14 15 15 16 16 18 19 20 21 22 22 23 24 25 26 27 28 29 30 31 32 32 32 32 32 32 31 30 29 28 27
11 11 11 11 12 12 13 13 12 11 9 8 6 6 7 8 8 7 7 7 6 5 5 6 6 6 7 6 7 8 8 9 9 10 11 12 12 14 15 14 13 14 15 16 16 17 18 18 19 20 22 22 23 25 26 27 28 29 30 32 33 35 36 36 37 37 37 36 35 34 33 32 31 30
12 12 12 12 13 14 14 13 12 11 10 9 8 8 8 8 7 7 6 6 5 5 5 6 6 6 7 7 8 8 8 9 10 11 12 13 13 14 15 15 14 14 15 17 18 17 18 19 20 21 22 23 24 26 27 28 29 30 31 32 33 34 35 36 36 37 37 37 37 37 36 35 34 32
13 13 14 15 16 15 14 13 13 12 11 9 8 8 8 7 6 5 5 5 5 5 6 5 6 6 7 8 8 9 9 9 11 12 13 15 15 15 17 17 16 15 15 17 19 19 20 21 22 23 24 25 26 26 26 27 27 28 29 29 29 29 30 31 31 31 31 30 30 31 33 34 35 34
14 16 17 18 17 15 14 13 12 11 10 8 7 7 6 6 5 5 4 4 5 5 5 5 6 6 7 8 8 9 10 11 12 13 14 15 16 16 17 18 18 17 18 19 21 22 22 23 25 24 24 26 28 27 26 27 27 28 30 31 31 31 31 31 30 29 29 28 27 28 30 32 34 35
17 18 18 19 17 15 13 12 11 10 9 8 7 6 5 5 4 4 4 5 5 5 6 6 6 6 7 8 9 10 11 11 12 13 14 15 16 17 18 18 19 20 20 21 22 22 21 22 24 24 23 25 27 26 25 25 24 25 26 27 27 28 28 27 26 26 28 29 30 30 30 31 32 34
19 18 17 16 16 15 12 10 9 8 8 7 6 5 4 4 3 4 4 4 4 5 5 5 6 6 7 8 10 11 12 13 13 14 15 16 17 18 18 18 18 19 20 20 20 20 19 19 21 21 21 22 22 22 22 21 20 20 20 20 20 21 21 21 21 22 22 23 24 25 25 25 26 29
18 16 15 13 13 12 11 9 8 7 7 7 5 4 3 2 2 3 4 4 5 5 6 7 7 8 9 10 11 12 14 15 15 15 15 15 15 15 15 15 15 16 16 16 17 17 17 17 17 16 16 17 17 18 18 19 19 19 19 20 20 20 20 21 21 21 20 20 20 22 22 22 23 26
18 15 13 12 12 12 11 9 8 7 6 5 3 2 1 1 3 4 5 7 8 9 9 10 11 12 13 13 14 14 14 14 14 13 13 12 12 11 11 11 12 13 13 13 14 14 15 15 16 15 16 17 17 18 19 19 20 21 21 22 22 22 22 23 22 22 21 21 21 21 21 21 24 26
19 16 13 11 11 11 10 9 8 6 4 3 2 1 2 4 6 7 9 10 10 11 11 12 13 14 15 14 14 13 12 12 12 11 11 11 11 11 11 11 12 13 13 13 14 14 15 16 18 19 19 19 20 20 20 20 20 21 22 22 23 23 23 23 23 22 22 21 21 20 19 20 22 24
16 15 13 11 10 8 8 7 6 4 2 1 3 5 6 8 10 10 10 10 9 9 10 11 13 15 15 13 12 12 11 11 12 11 11 11 11 12 11 11 11 13 14 14 14 15 16 18 20 21 21 19 18 18 18 19 20 20 21 22 23 23 23 22 22 22 21 20 19 18 17 17 19 22
13 13 12 10 9 8 7 6 5 3 4 6 8 9 11 13 14 13 12 12 11 11 11 12 13 13 12 12 11 11 11 11 11 11 11 11 11 10 10 10 10 11 12 13 15 15 16 16 17 19 19 18 16 15 15 18 19 20 20 21 21 21 20 20 19 19 18 18 16 14 14 16 18 19
12 10 10 10 9 9 8 6 6 7 8 9 10 11 13 15 15 13 13 13 12 12 12 11 10 9 9 9 9 10 10 10 10 10 9 9 9 9 9 9 9 10 10 12 13 13 12 12 13 14 16 17 16 17 17 18 20 21 21 20 19 19 18 17 16 15 14 12 11 9 11 13 15 15
10 8 8 8 8 8 7 7 9 10 10 9 9 10 11 11 10 9 9 8 7 7 7 7 6 6 7 7 8 8 9 8 8 8 8 8 8 7 7 7 7 7 7 8 9 10 11 11 12 13 15 16 17 19 19 19 19 20 20 19 18 16 15 15 15 14 11 9 8 7 9 12 13 13
9 8 9 9 8 8 8 9 9 8 8 7 7 7 6 5 4 4 3 3 3 4 4 5 5 6 7 8 8 8 8 8 8 7 7 7 6 6 6 5 5 5 6 7 9 10 11 12 13 15 16 17 18 19 19 19 19 18 18 17 16 15 14 14 14 13 11 9 6 6 9 11 12 12
9 9 9 8 8 8 8 7 6 6 5 5 4 3 2 1 1 1 1 2 3 4 5 6 7 7 7 8 7 7 7 6 6 5 5 6 6 5 5 5 5 5 6 7 9 10 11 13 14 15 17 17 18 17 17 18 18 17 16 15 15 15 15 14 13 12 10 8 7 9 10 11 12 12
8 8 8 8 7 7 6 5 4 4 3 2 1 1 1 1 1 0 2 3 5 7 7 7 7 6 5 5 5 4 4 3 3 4 4 5 6 5 5 5 6 7 7 8 10 11 12 13 14 15 15 16 16 17 17 17 17 17 16 14 13 14 15 14 13 12 10 10 10 11 12 12 12 13
8 8 8 7 6 5 4 3 3 3 3 2 2 2 2 1 1 3 5 6 7 7 5 4 4 4 3 3 3 3 3 4 4 4 5 6 7 7 7 7 8 9 9 10 11 12 13 13 13 13 14 14 14 15 16 16 16 16 16 15 14 13 13 13 13 12 12 12 12 12 12 12 12 12
9 9 8 6 5 5 4 4 3 3 3 4 3 2 1 2 4 5 6 5 5 4 4 4 4 4 4 4 4 4 4 4 4 4 5 6 8 8 9 9 9 10 11 12 12 13 14 14 14 14 13 13 13 13 14 15 15 15 16 16 15 14 12 12 12 12 12 12 12 12 12 11 10 10
9 8 7 7 6 6 6 5 4 4 5 4 2 1 3 5 5 5 4 4 4 4 5 5 5 6 6 5 5 5 4 4 4 6 6 7 8 8 8 9 9 10 12 13 14 15 15 15 15 15 14 13 12 12 13 14 15 14 15 16 16 15 14 13 12 12 12 12 13 13 13 13 13 13
8 8 8 8 8 7 7 6 5 5 3 1 2 4 5 5 5 5 5 5 5 6 7 7 8 8 7 6 6 6 6 6 7 8 9 9 9 9 9 9 10 10 11 12 13 13 14 14 14 15 15 14 14 13 13 13 14 14 13 13 14 13 13 14 13 12 11 11 12 13 14 15 15 15
8 10 10 10 10 8 7 6 5 3 1 3 3 4 4 4 6 7 7 7 8 9 9 9 9 8 7 7 8 8 8 8 9 9 9 9 9 10 10 11 11 11 11 12 12 13 13 14 15 15 14 14 14 14 13 12 13 13 13 13 13 12 12 12 12 12 12 12 13 14 15 16 15 15
9 11 12 11 9 8 6 4 2 1 3 3 4 4 5 7 8 8 9 9 10 10 9 8 8 7 7 7 8 9 9 9 9 9 9 9 10 10 11 11 11 12 12 13 14 14 15 15 14 13 13 12 11 11 12 13 12 12 13 13 13 12 11 12 12 12 12 13 14 15 15 14 13 12
10 11 11 10 9 7 4 2 1 3 3 3 4 5 6 7 8 9 9 9 9 8 7 7 7 7 7 8 9 10 11 10 10 10 10 10 11 11 12 12 12 13 13 14 15 16 17 17 17 16 15 14 11 9 10 13 14 13 13 13 14 14 13 12 12 11 11 11 11 12 12 11 9 9
11 11 10 9 8 5 2 0 2 2 2 3 4 5 6 8 8 8 8 8 7 6 6 6 6 6 8 9 10 11 11 11 11 11 10 11 11 11 12 12 12 13 14 14 15 15 16 17 19 19 20 20 17 14 12 11 13 15 15 14 14 15 14 13 12 12 12 12 12 12 12 11 10 9
9 10 8 7 5 3 1 0 1 2 4 5 6 7 7 7 7 7 7 7 6 5 6 6 6 7 8 10 10 11 11 11 10 10 10 10 10 10 11 11 12 12 13 13 14 14 14 15 17 18 20 20 20 20 17 11 8 12 16 16 16 16 15 14 14 14 14 14 14 13 13 13 12 11
7 8 7 5 4 3 2 4 5 6 7 8 8 7 6 6 6 7 7 7 6 6 7 7 8 9 9 10 10 10 10 10 9 9 9 9 10 10 10 11 11 11 12 13 13 14 14 15 17 17 17 17 17 19 20 16 11 12 14 16 17 16 15 15 16 16 16 15 14 14 14 14 13 11
8 8 7 5 5 5 6 7 8 8 9 8 7 6 6 7 8 8 9 8 8 8 8 8 9 9 10 10 9 9 8 8 8 9 9 9 9 9 9 10 11 12 13 14 15 16 17 17 17 16 15 14 15 16 17 17 15 13 13 15 17 16 15 15 16 17 16 15 15 15 14 14 14 12
8 7 7 7 8 8 8 9 9 9 8 7 7 7 8 9 9 9 9 8 8 8 7 8 8 9 9 9 9 8 8 8 9 9 9 9 9 9 10 10 11 12 14 15 16 17 18 18 17 16 14 13 14 14 14 14 14 14 13 14 16 15 15 15 15 17 17 16 15 16 15 15 14 12
9 10 10 9 9 9 8 9 8 8 8 8 8 8 8 8 8 7 7 7 7 7 7 7 7 7 8 8 8 8 8 8 9 9 11 11 9 8 9 10 11 13 15 16 16 17 17 17 16 15 13 12 12 13 13 14 15 16 14 13 13 13 14 15 15 15 15 15 15 16 16 15 14 12
9 9 9 8 8 8 8 8 8 8 9 9 8 8 7 8 9 9 9 8 8 7 6 5 5 6 6 7 7 7 7 8 9 11 12 13 11 10 10 10 12 14 15 15 15 15 16 16 15 13 11 12 12 13 14 15 17 17 16 14 13 12 13 14 14 14 15 15 15 16 16 16 15 13
7 6 7 7 8 8 8 9 10 10 10 10 9 9 9 9 9 9 9 7 6 5 4 4 4 4 4 5 6 7 8 9 10 11 12 13 13 12 12 11 12 14 13 13 14 14 14 16 16 14 12 12 12 13 13 15 16 17 18 17 16 14 13 12 11 12 13 14 15 16 16 16 15 15
6 6 7 8 8 9 10 10 10 10 10 10 10 10 9 8 8 7 6 5 4 3 2 2 3 3 4 5 6 8 8 9 10 10 11 12 12 13 12 12 13 14 14 14 14 13 13 16 17 16 14 13 13 12 13 14 15 16 17 17 16 15 15 14 14 14 14 14 15 15 15 14 15 16
7 7 8 9 9 9 10 10 10 9 9 9 8 8 7 7 6 6 5 4 3 2 2 2 2 3 4 4 5 6 7 8 9 10 10 11 11 11 11 11 13 14 14 13 13 13 13 14 16 16 15 14 14 13 14 14 15 17 18 18 17 16 16 17 17 16 15 15 15 15 14 13 13 14
Wind_Direction
212 212 211 210 215 219 219 217 223 228 223 214 210 215 222 224 222 209 217 226 199 184 185 184 180 177 178 174 170 167 155 146 139 110 77 45 33 7 249 234 244 237 226 220 217 220 222 219 217 204 187 168 142 110 350 351 344 333 327 321 317 315 313 312 310 305 302 299 300 302 303 307 312 318
211 212 211 211 214 216 214 213 220 227 223 212 208 204 199 216 237 240 251 265 202 183 177 171 159 143 152 160 165 171 168 164 163 142 56 23 15 338 293 255 265 262 251 240 229 220 210 203 200 193 185 176 169 166 357 336 329 322 316 315 313 311 310 309 306 304 301 300 301 303 306 308 311 315
210 211 211 211 212 213 211 209 215 224 222 211 206 203 195 204 225 237 264 308 191 180 171 163 162 156 157 162 169 180 183 179 179 181 8 11 7 345 323 318 311 288 270 254 232 214 201 198 199 190 185 179 178 198 282 310 313 311 313 316 318 320 320 320 318 316 313 312 312 312 313 314 314 315
210 211 211 210 211 212 212 214 221 225 218 210 206 201 195 198 209 216 236 355 153 168 164 157 162 161 159 164 174 190 199 195 196 237 359 7 358 320 275 278 300 291 276 258 234 218 207 204 201 193 193 197 210 238 272 291 298 305 313 321 326 328 329 327 325 322 320 319 318 318 318 318 317 316
212 211 210 210 212 213 215 218 225 226 215 206 202 196 190 187 188 188 176 126 138 159 165 162 163 161 156 164 173 200 212 209 210 221 276 309 289 251 236 239 252 249 256 252 236 223 217 214 211 210 217 228 244 267 283 287 292 299 309 318 323 325 323 322 320 319 318 318 318 318 317 316 317 317
213 212 209 210 212 214 216 218 220 218 209 203 199 194 186 174 168 170 163 143 140 155 168 174 179 170 151 148 157 251 222 210 217 230 242 240 214 205 225 263 278 260 244 246 240 234 231 229 228 231 239 248 259 276 288 290 291 294 300 306 307 307 306 305 306 306 306 306 306 306 307 308 310 312
211 209 206 206 208 210 210 209 209 203 197 196 195 193 186 173 168 172 170 162 155 162 176 191 205 205 143 122 335 304 246 212 220 232 228 211 190 188 204 243 274 271 255 241 238 240 241 239 239 244 249 253 259 270 280 284 286 290 292 293 293 293 292 292 293 294 295 295 296 297 299 301 303 304
206 203 202 201 200 202 201 199 198 193 187 187 188 191 193 186 180 179 180 182 182 181 184 199 217 216 187 174 260 298 290 212 205 209 202 193 189 194 207 232 258 267 264 255 248 248 249 249 251 255 258 261 263 268 274 278 280 282 284 285 286 286 286 287 289 290 290 292 293 294 296 297 299 299
200 199 198 196 194 194 193 192 193 188 183 182 182 184 189 188 188 187 189 197 204 198 187 206 235 231 225 239 243 254 279 245 204 200 210 225 238 254 276 289 290 286 282 277 268 263 262 262 264 265 267 269 270 271 274 276 277 278 279 281 282 282 284 285 287 287 289 291 292 293 295 295 296 296
197 197 197 194 190 189 188 189 189 184 177 175 174 174 174 177 184 189 195 207 215 215 224 241 240 230 245 281 263 245 254 262 254 244 251 262 276 288 297 302 303 302 298 294 286 280 276 273 272 272 272 273 274 276 277 278 279 280 281 283 283 284 285 286 287 288 288 289 290 292 292 292 293 293
193 194 195 193 188 187 187 182 177 173 168 166 166 168 170 176 187 197 207 220 229 234 241 240 227 219 234 279 283 265 258 260 264 268 276 286 295 299 302 303 303 301 299 298 294 291 288 285 283 281 279 278 279 280 281 281 282 283 284 285 286 286 287 286 287 287 287 287 288 289 289 289 288 287
189 189 189 190 187 186 181 171 164 163 162 161 161 165 173 182 194 205 216 226 237 245 248 242 234 231 236 257 274 272 271 273 280 287 293 299 304 304 303 303 303 302 300 299 296 294 292 291 291 290 288 287 287 286 286 285 285 286 287 287 287 286 285 285 285 284 284 284 284 284 284 284 283 282
185 185 185 185 179 173 166 160 158 160 161 162 164 172 179 186 195 204 212 223 235 245 247 244 245 247 252 266 277 283 288 292 293 295 294 296 299 299 299 300 302 301 299 297 294 293 292 290 289 289 288 288 288 287 286 285 286 287 286 286 285 284 283 283 282 281 280 280 280 280 279 279 280 280
181 178 179 175 167 161 156 155 157 161 165 166 165 171 178 182 190 198 203 210 219 230 239 244 249 255 263 272 278 282 285 284 285 285 286 287 288 289 291 294 296 294 293 293 291 291 291 288 286 285 286 288 287 284 282 282 282 281 281 281 280 279 280 279 278 276 275 274 274 274 274 275 276 276
175 169 169 166 161 158 154 154 156 158 162 163 159 166 176 179 182 189 192 200 212 226 236 243 247 252 260 268 274 279 281 282 282 283 284 286 288 290 292 294 295 293 290 288 287 287 287 287 285 285 287 288 288 287 285 282 280 279 280 280 279 282 285 285 284 282 279 277 275 274 273 273 273 275
166 161 162 161 158 157 155 154 155 155 156 157 159 164 172 178 186 196 212 230 242 247 249 255 258 262 268 275 281 286 288 289 289 289 289 290 292 294 294 295 296 294 290 288 287 287 289 289 288 289 290 290 290 292 291 288 287 286 286 286 286 290 292 292 291 289 286 285 284 284 284 281 279 278
160 158 159 160 158 157 156 155 156 159 157 155 159 164 169 180 193 209 229 241 248 251 255 263 271 277 282 288 292 294 294 292 290 289 290 290 290 291 290 290 291 290 291 291 291 292 293 293 293 296 296 293 294 295 295 295 295 293 292 291 289 291 293 293 292 289 285 282 280 281 283 280 276 273
159 159 163 164 158 153 154 160 165 171 170 164 165 171 182 197 211 224 235 241 246 252 260 271 281 289 293 296 297 298 298 298 297 296 295 293 292 292 292 292 291 291 293 293 293 295 296 293 293 296 295 294 296 298 299 301 302 300 299 298 297 296 296 298 299 297 291 284 277 276 278 276 272 269
163 165 169 169 161 154 157 164 163 161 161 162 169 179 189 209 240 259 267 274 277 280 285 291 295 301 304 304 304 304 305 306 306 305 304 301 299 299 298 297 295 293 292 291 291 295 297 296 296 299 300 300 302 303 305 308 308 307 306 305 304 303 303 303 304 304 301 293 284 277 274 271 267 263
169 169 167 165 163 159 159 160 156 152 150 151 154 146 109 356 330 318 310 306 303 301 303 307 311 313 312 312 312 312 311 311 310 311 311 309 308 307 303 298 295 292 291 292 294 299 305 306 305 307 310 312 314 315 315 314 313 311 310 308 306 305 304 303 302 302 301 297 292 285 276 268 262 258
170 168 163 161 161 160 161 163 160 156 149 141 129 66 350 332 321 313 305 300 297 296 300 309 315 316 314 313 313 312 312 311 311 312 311 307 306 304 299 294 292 294 297 300 303 308 313 313 310 310 312 314 316 317 316 314 313 312 310 310 308 307 305 303 301 300 298 297 295 291 283 273 265 259
166 159 157 160 165 167 170 171 167 163 170 261 307 312 314 315 314 310 305 300 296 296 301 308 310 310 310 311 311 311 310 309 307 306 302 299 299 299 297 294 293 296 301 304 306 310 313 313 311 311 311 312 313 314 313 311 309 309 309 309 309 308 307 305 302 299 296 295 294 290 281 269 258 253
163 159 162 168 175 177 179 181 187 215 261 282 291 297 302 306 305 300 297 296 297 300 305 306 304 303 304 306 308 307 307 308 308 307 306 303 302 302 301 299 297 298 301 303 306 310 312 314 316 318 321 324 323 319 317 314 311 312 312 311 309 308 306 303 299 295 294 293 290 283 272 259 250 246
163 167 173 176 180 184 188 199 223 250 267 275 280 285 290 292 288 284 286 288 289 291 295 297 299 300 300 302 304 305 307 308 309 310 310 308 308 310 309 307 305 303 303 306 312 316 317 320 324 326 329 332 329 324 321 318 315 315 314 312 310 309 307 306 304 301 299 297 289 275 258 250 246 244
169 179 187 191 198 205 216 235 251 261 267 271 276 280 281 279 275 274 278 282 284 288 291 295 299 302 303 305 308 310 313 316 318 319 320 320 320 321 319 316 314 311 311 315 320 321 320 320 321 320 320 323 323 322 322 322 320 320 320 320 320 319 318 319 321 322 321 317 303 274 250 246 247 248
203 205 207 210 219 231 242 251 256 261 266 271 275 277 276 271 263 263 271 283 297 304 306 310 312 313 314 315 316 320 323 328 330 330 330 332 335 336 333 330 323 317 318 321 321 321 320 320 321 321 320 320 320 321 322 323 324 328 332 333 332 333 334 334 334 335 332 323 303 267 249 249 250 251
212 209 213 220 231 240 246 251 254 255 260 266 266 259 250 231 212 235 282 295 302 307 311 313 312 312 313 314 316 322 327 331 335 338 344 348 348 346 340 334 328 324 325 325 323 323 323 325 326 328 328 328 326 327 328 328 327 330 337 340 338 337 339 338 336 331 316 287 253 241 245 248 250 255
210 217 222 226 232 237 241 244 241 231 223 216 192 164 147 137 145 235 297 302 306 309 310 311 313 316 322 327 332 337 341 342 345 353 353 349 345 342 337 335 335 335 332 327 324 323 325 328 330 332 332 332 331 330 330 329 327 327 329 332 331 330 331 331 330 324 306 277 259 258 263 265 268 273
224 224 220 219 221 224 222 211 196 179 157 145 139 134 130 127 330 320 320 319 319 320 324 336 349 2 9 9 7 8 5 356 356 6 6 357 351 349 346 343 340 336 331 327 326 327 330 332 334 335 336 334 333 331 329 329 329 328 326 325 324 324 324 322 319 314 304 292 284 281 279 275 273 272
206 204 203 205 204 191 171 158 155 147 136 130 126 117 76 340 336 337 339 341 346 358 18 29 32 32 30 28 31 32 23 10 7 13 10 358 347 342 341 343 342 339 339 339 338 339 340 340 340 341 340 339 338 336 333 332 332 332 329 326 325 325 321 314 308 305 301 295 289 284 280 274 265 257
197 197 194 187 178 167 156 151 148 136 128 123 104 10 346 346 353 2 12 18 24 35 42 44 44 44 43 43 44 43 33 17 9 8 4 357 352 349 351 354 353 350 349 348 345 345 345 344 343 342 342 343 343 340 337 335 334 334 334 331 330 330 327 322 317 310 300 290 282 279 278 274 266 259
199 191 181 170 163 160 157 149 138 127 116 76 353 347 350 359 14 27 35 40 48 56 58 57 58 58 55 51 45 39 31 23 19 19 16 13 12 11 6 1 357 354 352 351 352 354 355 355 353 350 347 346 343 340 338 335 332 333 335 336 336 337 335 334 331 322 307 289 278 276 277 275 269 266
181 170 166 160 155 152 149 141 130 116 52 357 353 359 13 30 42 51 58 61 66 69 66 64 64 61 54 48 44 38 31 27 25 24 20 15 13 9 3 2 5 7 7 7 9 11 12 12 10 4 356 350 344 338 335 333 332 333 336 337 339 342 341 336 329 318 301 284 275 274 275 275 274 274
172 166 161 156 153 151 148 141 123 60 12 7 19 36 50 56 59 65 68 68 70 71 69 66 64 60 54 48 43 35 30 28 27 25 23 22 20 17 17 21 25 24 23 21 17 14 12 12 12 8 1 357 351 343 340 342 341 340 342 342 342 343 343 337 330 321 308 293 284 281 279 279 279 279
166 166 162 158 158 157 152 135 54 20 20 30 46 59 66 70 72 72 70 72 74 73 69 68 66 61 50 40 35 33 34 35 36 35 35 34 34 34 34 34 32 28 23 19 16 13 9 5 3 1 359 0 3 2 1 359 355 351 351 350 346 343 342 340 338 335 330 319 308 301 295 290 283 280
161 166 168 165 160 157 153 38 10 22 55 70 73 78 81 81 80 76 74 79 82 78 75 73 63 52 42 35 37 43 47 49 48 44 42 41 40 40 36 30 27 24 19 15 13 12 7 3 1 359 359 2 4 3 3 8 6 358 354 353 350 344 343 346 349 345 339 333 327 320 313 304 292 285
169 169 174 172 166 175 228 270 108 108 106 98 95 97 92 82 78 78 82 89 91 87 83 73 59 51 46 42 47 52 52 51 48 44 43 41 36 30 24 20 19 17 13 12 11 6 1 359 358 355 356 359 0 356 353 359 15 4 353 350 350 346 342 346 350 345 337 332 328 323 318 310 297 288
197 186 191 198 199 201 180 145 129 117 108 104 103 103 92 80 78 83 91 99 99 89 79 67 57 54 50 49 53 53 49 47 43 38 36 29 20 18 18 16 13 9 7 7 5 359 355 352 350 350 352 354 355 352 349 350 3 6 353 344 345 345 343 343 343 338 334 332 328 323 320 314 303 293
212 206 206 199 179 159 143 130 118 108 106 108 109 105 95 89 90 92 94 96 90 79 70 61 57 55 52 51 52 48 43 38 29 22 18 11 11 17 20 15 11 7 3 1 358 356 355 355 355 358 359 355 352 349 348 350 359 7 359 344 341 343 343 342 336 332 333 334 330 326 324 318 308 297
189 177 165 155 146 136 127 120 113 110 112 116 115 108 99 92 94 94 92 88 83 74 66 61 57 52 46 43 41 36 31 24 18 16 16 17 21 25 20 14 10 4 0 0 1 2 3 4 3 1 359 358 355 352 351 354 358 360 355 347 345 344 341 336 330 330 334 336 332 328 326 320 311 301
153 148 142 139 134 127 123 120 117 116 116 114 110 106 100 94 94 98 97 93 89 81 69 60 53 42 33 29 27 23 21 21 24 28 27 26 29 28 19 14 10 4 2 5 9 9 8 5 2 359 360 5 4 358 356 357 353 351 351 351 349 346 337 329 327 330 335 337 335 331 329 327 322 314
140 141 138 134 130 128 124 121 118 116 116 114 114 112 107 100 97 97 96 95 92 84 72 61 50 36 27 22 20 24 29 33 36 35 30 29 31 29 22 15 7 4 7 11 12 12 9 5 5 7 8 6 1 355 355 353 347 346 348 349 348 345 338 333 333 334 334 335 335 332 330 330 328 324
133 137 137 135 131 128 125 122 120 117 115 114 114 113 110 106 102 98 96 92 86 79 72 62 45 37 40 41 42 46 48 45 39 33 28 25 24 23 21 14 4 4 11 13 11 11 11 10 11 13 9 2 356 353 353 354 350 349 350 349 349 351 350 347 345 341 336 333 329 324 322 322 321 319
139 140 140 136 131 129 126 123 120 118 114 111 111 111 112 111 107 103 99 93 85 79 77 70 58 62 71 65 55 51 48 41 35 28 22 18 16 16 16 12 6 10 16 13 9 11 13 12 12 14 11 7 4 360 357 357 356 353 351 350 350 350 349 348 346 342 338 333 328 322 317 312 308 307
143 142 140 135 131 129 126 123 121 119 116 114 115 116 115 113 110 108 105 102 100 106 111 104 92 85 80 68 51 42 35 28 24 20 16 14 11 10 7 4 7 15 18 11 5 7 8 4 7 14 18 17 13 9 5 2 357 352 349 349 347 344 341 340 340 338 336 334 331 326 319 312 307 305
Height
1551 1552 1553 1554 1555 1556 1557 1558 1559 1560 1561 1562 1562 1563 1564 1565 1567 1568 1569 1569 1570 1572 1573 1574 1575 1575 1575 1576 1577 1578 1578 1579 1580 1580 1581 1581 1581 1581 1581 1581 1581 1581 1582 1582 1582 1583 1584 1584 1585 1585 1586 1586 1587 1587 1587 1587 1588 1588 1588 1588 1588 1588 1588 1588 1588 1588 1588 1588 1588 1588 1588 1588 1587 1587
1550 1551 1552 1553 1554 1555 1556 1557 1558 1559 1560 1561 1562 1562 1563 1565 1566 1567 1568 1569 1570 1571 1572 1573 1574 1575 1575 1576 1577 1577 1578 1578 1579 1580 1580 1580 1580 1580 1580 1580 1581 1581 1581 1582 1582 1582 1583 1584 1584 1585 1585 1586 1586 1587 1587 1587 1587 1588 1588 1588 1588 1588 1588 1588 1588 1588 1588 1588 1588 1588 1587 1587 1587 1586
1548 1549 1551 1552 1553 1553 1555 1556 1557 1558 1559 1560 1561 1562 1563 1564 1566 1567 1568 1568 1569 1570 1572 1573 1574 1574 1575 1576 1576 1577 1577 1578 1579 1579 1580 1580 1580 1580 1580 1580 1580 1580 1581 1581 1582 1582 1583 1583 1584 1585 1585 1585 1586 1586 1587 1587 1587 1587 1588 1588 1588 1588 1588 1588 1588 1587 1587 1587 1587 1587 1586 1586 1586 1586
1547 1548 1549 1550 1551 1552 1553 1555 1556 1557 1558 1559 1560 1561 1562 1564 1565 1567 1568 1568 1568 1570 1571 1572 1573 1574 1574 1575 1576 1576 1577 1577 1578 1579 1579 1579 1580 1580 1580 1580 1580 1580 1580 1581 1581 1582 1583 1583 1584 1584 1585 1585 1586 1586 1586 1586 1587 1587 1587 1587 1587 1587 1587 1587 1587 1587 1586 1586 1586 1586 1585 1585 1585 1584
1546 1547 1548 1549 1550 1551 1552 1554 1555 1556 1557 1559 1560 1560 1562 1563 1565 1566 1567 1568 1568 1570 1571 1572 1573 1574 1574 1575 1575 1576 1576 1577 1577 1578 1579 1579 1579 1579 1579 1579 1580 1580 1580 1581 1581 1582 1583 1583 1584 1584 1585 1585 1585 1586 1586 1586 1586 1586 1586 1586 1587 1586 1586 1586 1586 1586 1585 1585 1585 1584 1584 1584 1583 1583
1544 1546 1547 1548 1549 1550 1552 1553 1554 1555 1556 1558 1559 1560 1561 1563 1564 1566 1567 1567 1568 1570 1571 1572 1573 1573 1574 1575 1575 1575 1576 1576 1577 1577 1578 1578 1579 1579 1579 1579 1579 1580 1580 1580 1581 1582 1582 1583 1584 1584 1585 1585 1585 1585 1585 1585 1585 1585 1586 1586 1586 1586 1585 1585 1585 1584 1584 1584 1583 1583 1583 1582 1582 1581
1544 1545 1546 1547 1548 1549 1551 1552 1553 1554 1556 1557 1558 1560 1561 1562 1564 1565 1566 1567 1568 1570 1571 1572 1573 1573 1574 1574 1575 1575 1575 1576 1576 1577 1577 1578 1578 1579 1579 1579 1579 1579 1580 1580 1581 1581 1582 1582 1583 1583 1584 1584 1584 1585 1585 1585 1585 1585 1585 1585 1585 1584 1584 1584 1584 1583 1583 1582 1582 1582 1581 1581 1580 1580
1543 1544 1545 1546 1547 1548 1550 1551 1552 1554 1555 1556 1558 1559 1561 1562 1563 1565 1566 1567 1568 1569 1570 1571 1572 1573 1574 1574 1574 1575 1575 1575 1576 1577 1577 1578 1578 1578 1579 1579 1579 1579 1579 1579 1580 1580 1581 1582 1582 1582 1583 1583 1583 1583 1584 1584 1584 1583 1583 1583 1583 1583 1583 1583 1582 1582 1581 1581 1580 1580 1579 1579 1578 1578
1542 1543 1544 1545 1546 1547 1549 1550 1552 1553 1554 1556 1557 1559 1560 1561 1563 1564 1565 1567 1568 1569 1570 1571 1572 1572 1573 1574 1574 1574 1575 1575 1576 1576 1577 1577 1578 1578 1579 1579 1579 1579 1579 1579 1579 1580 1580 1581 1581 1581 1582 1582 1582 1582 1582 1582 1582 1582 1582 1582 1582 1581 1581 1581 1581 1580 1580 1579 1578 1578 1577 1577 1576 1576
1541 1542 1543 1544 1546 1547 1548 1549 1551 1553 1554 1555 1557 1558 1560 1561 1562 1563 1565 1566 1567 1568 1569 1570 1571 1572 1572 1573 1573 1574 1574 1575 1575 1576 1576 1577 1577 1578 1578 1578 1579 1579 1579 1579 1579 1579 1579 1580 1580 1580 1580 1580 1580 1581 1581 1580 1580 1580 1580 1580 1580 1579 1579 1579 1578 1578 1577 1577 1576 1576 1575 1575 1574 1573
1541 1542 1543 1544 1545 1546 1548 1549 1551 1552 1554 1555 1557 1558 1559 1561 1562 1563 1564 1565 1566 1567 1568 1569 1570 1571 1572 1572 1573 1573 1573 1574 1574 1575 1575 1576 1577 1577 1577 1577 1578 1578 1578 1578 1578 1578 1578 1578 1578 1578 1578 1578 1579 1579 1579 1578 1578 1578 1578 1578 1578 1577 1577 1576 1576 1575 1575 1574 1574 1573 1573 1572 1571 1570
1540 1541 1542 1544 1545 1546 1548 1549 1550 1552 1553 1555 1556 1558 1559 1560 1561 1563 1564 1565 1566 1567 1567 1568 1569 1570 1571 1571 1572 1572 1573 1573 1573 1574 1575 1575 1576 1576 1576 1576 1576 1576 1576 1576 1576 1576 1576 1576 1576 1576 1576 1576 1576 1577 1576 1576 1576 1576 1575 1575 1575 1574 1574 1573 1573 1572 1572 1571 1571 1570 1569 1569 1568 1567
1540 1541 1542 1543 1545 1546 1548 1549 1550 1552 1553 1554 1556 1557 1558 1559 1561 1562 1563 1564 1565 1566 1567 1567 1568 1569 1570 1570 1571 1571 1572 1572 1573 1573 1573 1574 1574 1574 1574 1574 1574 1574 1574 1574 1574 1574 1574 1574 1574 1574 1574 1574 1574 1574 1573 1573 1573 1572 1572 1572 1571 1570 1569 1569 1568 1568 1567 1567 1566 1566 1565 1565 1564 1563
1539 1541 1542 1543 1545 1546 1548 1549 1550 1551 1553 1554 1555 1556 1557 1559 1560 1561 1562 1563 1564 1565 1566 1566 1567 1568 1569 1569 1569 1570 1570 1571 1571 1571 1572 1572 1572 1572 1572 1572 1572 1572 1572 1571 1571 1572 1571 1571 1571 1571 1571 1571 1571 1570 1569 1569 1568 1568 1567 1567 1566 1565 1564 1564 1563 1562 1562 1562 1561 1561 1561 1561 1560 1560
1539 1540 1541 1543 1545 1546 1548 1549 1550 1551 1552 1553 1554 1556 1557 1558 1559 1561 1562 1563 1564 1564 1565 1566 1566 1567 1568 1568 1568 1569 1569 1569 1569 1570 1570 1570 1570 1570 1570 1570 1570 1570 1570 1569 1569 1569 1569 1568 1568 1569 1569 1568 1567 1566 1566 1565 1564 1564 1563 1562 1562 1561 1560 1560 1559 1558 1557 1557 1557 1557 1557 1557 1556 1556
1538 1540 1541 1543 1544 1546 1547 1548 1550 1551 1552 1554 1555 1556 1557 1558 1560 1561 1562 1562 1563 1564 1564 1565 1565 1566 1567 1567 1568 1568 1568 1568 1568 1568 1568 1568 1568 1568 1568 1568 1567 1567 1567 1567 1566 1567 1567 1565 1565 1566 1566 1565 1563 1563 1563 1562 1562 1561 1560 1559 1558 1557 1557 1556 1555 1554 1554 1554 1553 1553 1553 1553 1552 1552
1538 1540 1541 1542 1544 1545 1547 1548 1550 1551 1552 1554 1555 1556 1558 1559 1559 1560 1561 1562 1562 1563 1563 1564 1564 1565 1566 1566 1566 1566 1567 1567 1567 1567 1567 1567 1567 1567 1566 1566 1565 1564 1564 1564 1563 1564 1564 1563 1562 1562 1563 1561 1560 1559 1559 1558 1558 1557 1556 1555 1554 1553 1552 1551 1550 1549 1549 1549 1548 1549 1549 1548 1547 1547
1538 1540 1541 1542 1543 1545 1547 1548 1550 1551 1552 1554 1555 1556 1557 1558 1559 1560 1561 1561 1562 1562 1563 1563 1563 1564 1564 1565 1565 1565 1565 1565 1565 1565 1565 1565 1565 1565 1564 1564 1563 1563 1562 1561 1561 1561 1561 1561 1560 1559 1559 1558 1557 1556 1555 1555 1554 1553 1552 1552 1551 1550 1549 1548 1547 1546 1545 1544 1544 1544 1543 1542 1542 1542
1538 1539 1541 1543 1544 1545 1547 1548 1550 1551 1552 1554 1555 1556 1557 1557 1558 1559 1560 1561 1561 1562 1562 1562 1562 1562 1563 1563 1563 1563 1563 1563 1563 1563 1563 1562 1562 1562 1562 1561 1561 1560 1560 1559 1559 1558 1558 1558 1557 1557 1556 1556 1555 1554 1553 1552 1551 1550 1550 1549 1548 1547 1546 1545 1544 1543 1542 1541 1541 1540 1539 1539 1539 1539
1537 1539 1541 1542 1544 1545 1546 1548 1549 1551 1552 1553 1555 1555 1556 1557 1557 1558 1559 1560 1560 1560 1560 1561 1561 1561 1561 1561 1561 1561 1561 1561 1561 1560 1560 1560 1560 1560 1560 1560 1559 1558 1558 1558 1557 1557 1556 1555 1554 1554 1554 1553 1553 1552 1551 1550 1549 1548 1547 1546 1545 1544 1543 1542 1541 1540 1539 1538 1538 1537 1536 1536 1536 1536
1537 1539 1541 1543 1544 1545 1546 1548 1549 1551 1552 1553 1554 1555 1555 1556 1556 1557 1557 1558 1558 1558 1558 1558 1559 1559 1559 1559 1559 1559 1559 1559 1559 1558 1558 1558 1558 1558 1558 1558 1557 1556 1556 1556 1555 1555 1554 1552 1551 1551 1551 1551 1550 1549 1548 1547 1546 1545 1544 1543 1541 1541 1540 1539 1538 1537 1536 1535 1535 1534 1534 1533 1534 1534
1538 1540 1542 1544 1545 1546 1547 1548 1549 1550 1552 1552 1553 1553 1554 1554 1554 1555 1555 1556 1556 1556 1557 1556 1556 1557 1557 1557 1557 1558 1558 1557 1557 1557 1557 1557 1557 1557 1557 1557 1556 1555 1555 1554 1554 1553 1552 1551 1549 1548 1548 1548 1548 1547 1546 1545 1544 1543 1542 1540 1539 1538 1537 1536 1535 1534 1533 1532 1532 1531 1531 1531 1531 1531
1539 1541 1542 1544 1545 1546 1547 1548 1549 1550 1551 1551 1552 1552 1552 1552 1553 1553 1554 1554 1555 1555 1555 1555 1555 1555 1555 1556 1556 1556 1556 1556 1556 1555 1555 1555 1555 1555 1555 1555 1555 1554 1554 1553 1552 1552 1551 1550 1548 1547 1546 1546 1546 1545 1544 1543 1541 1541 1540 1539 1537 1536 1534 1533 1532 1531 1530 1529 1529 1529 1529 1530 1530 1530
1539 1540 1542 1543 1544 1545 1546 1547 1548 1549 1550 1550 1550 1550 1551 1551 1551 1552 1552 1552 1553 1553 1553 1553 1554 1554 1554 1554 1554 1554 1554 1554 1554 1554 1554 1554 1554 1554 1554 1554 1554 1553 1553 1552 1551 1551 1550 1549 1548 1546 1545 1544 1543 1543 1542 1541 1539 1538 1537 1536 1535 1534 1533 1531 1530 1529 1528 1527 1527 1527 1528 1529 1529 1530
1538 1540 1541 1543 1544 1545 1546 1547 1548 1548 1549 1549 1549 1549 1549 1550 1550 1550 1551 1551 1551 1552 1552 1552 1552 1553 1553 1553 1553 1553 1553 1553 1553 1553 1553 1553 1553 1553 1553 1553 1553 1553 1552 1551 1551 1550 1549 1548 1547 1546 1545 1544 1542 1541 1540 1539 1538 1537 1535 1534 1533 1532 1531 1530 1529 1528 1527 1527 1527 1527 1528 1529 1530 1531
1538 1539 1541 1542 1543 1544 1545 1546 1547 1547 1547 1548 1548 1548 1548 1549 1549 1550 1550 1550 1550 1550 1551 1551 1551 1551 1552 1552 1552 1552 1552 1552 1552 1552 1552 1552 1552 1552 1552 1552 1552 1552 1552 1551 1550 1549 1548 1547 1546 1545 1544 1543 1541 1540 1538 1537 1536 1535 1534 1533 1532 1531 1530 1529 1528 1527 1526 1526 1526 1527 1527 1528 1529 1530
1537 1538 1540 1541 1542 1543 1544 1545 1546 1546 1547 1547 1547 1547 1548 1548 1549 1549 1549 1549 1549 1550 1550 1550 1550 1550 1550 1551 1551 1551 1551 1551 1551 1551 1551 1551 1551 1552 1552 1552 1551 1551 1551 1550 1549 1548 1547 1546 1545 1544 1543 1541 1540 1539 1538 1536 1535 1534 1533 1532 1531 1530 1529 1528 1527 1527 1526 1526 1526 1526 1527 1527 1527 1528
1536 1538 1539 1540 1541 1542 1543 1544 1545 1545 1546 1546 1546 1547 1547 1548 1548 1548 1548 1548 1548 1549 1549 1549 1549 1549 1549 1549 1550 1550 1550 1550 1550 1551 1551 1551 1551 1551 1551 1551 1551 1550 1550 1549 1548 1547 1546 1545 1544 1543 1542 1541 1539 1538 1537 1535 1534 1533 1532 1531 1530 1529 1528 1527 1527 1526 1526 1526 1526 1526 1526 1526 1527 1527
1536 1537 1538 1539 1540 1541 1542 1543 1544 1545 1545 1546 1546 1547 1547 1547 1547 1547 1547 1547 1547 1547 1548 1548 1548 1548 1548 1549 1549 1549 1549 1550 1550 1550 1550 1550 1550 1550 1550 1550 1550 1549 1549 1548 1547 1546 1545 1544 1543 1542 1541 1540 1538 1537 1536 1535 1533 1532 1531 1530 1529 1529 1528 1527 1526 1526 1526 1525 1525 1525 1525 1525 1525 1525
1535 1536 1537 1539 1540 1541 1542 1543 1544 1544 1545 1545 1546 1546 1547 1547 1547 1547 1546 1546 1546 1546 1547 1547 1547 1548 1548 1548 1548 1549 1549 1549 1549 1550 1550 1550 1550 1550 1549 1549 1549 1548 1547 1546 1546 1545 1544 1543 1542 1541 1540 1539 1538 1536 1535 1534 1533 1532 1530 1529 1528 1528 1527 1526 1526 1525 1525 1525 1524 1524 1524 1524 1524 1524
1534 1536 1537 1538 1540 1541 1542 1543 1543 1544 1545 1545 1546 1546 1546 1546 1546 1546 1546 1546 1546 1546 1546 1546 1547 1547 1547 1548 1548 1549 1549 1549 1550 1550 1550 1550 1550 1549 1549 1549 1548 1547 1546 1545 1544 1543 1543 1542 1541 1539 1539 1538 1537 1536 1535 1533 1532 1531 1530 1528 1527 1526 1526 1525 1525 1524 1524 1523 1523 1522 1522 1522 1522 1522
1534 1536 1537 1538 1540 1541 1542 1543 1543 1544 1544 1545 1545 1545 1545 1545 1546 1546 1546 1546 1546 1546 1546 1546 1546 1547 1547 1548 1548 1549 1549 1550 1550 1550 1550 1550 1549 1549 1549 1548 1547 1547 1546 1545 1544 1543 1542 1541 1540 1539 1538 1537 1536 1535 1534 1533 1532 1530 1529 1528 1527 1526 1525 1525 1524 1523 1523 1522 1522 1522 1521 1521 1520 1520
1534 1536 1538 1539 1540 1542 1542 1543 1543 1544 1544 1544 1544 1544 1545 1545 1545 1545 1546 1546 1545 1546 1546 1546 1547 1547 1548 1548 1549 1549 1550 1550 1550 1550 1549 1549 1549 1548 1548 1547 1547 1546 1545 1545 1544 1543 1542 1541 1539 1538 1537 1536 1535 1534 1533 1532 1531 1530 1529 1528 1527 1526 1525 1524 1523 1523 1522 1522 1521 1521 1521 1520 1520 1519
1535 1537 1538 1540 1541 1542 1543 1543 1543 1544 1544 1543 1543 1544 1544 1545 1545 1545 1545 1545 1546 1546 1547 1547 1548 1548 1549 1549 1550 1550 1550 1550 1550 1549 1549 1549 1549 1548 1548 1547 1546 1546 1545 1545 1544 1542 1542 1541 1540 1539 1538 1537 1535 1534 1532 1531 1531 1530 1529 1527 1526 1525 1525 1524 1523 1522 1522 1521 1520 1520 1519 1519 1519 1518
1537 1538 1539 1540 1542 1542 1543 1543 1543 1543 1543 1543 1543 1544 1544 1544 1545 1545 1545 1546 1546 1547 1548 1548 1549 1549 1549 1550 1550 1550 1550 1550 1550 1550 1549 1549 1549 1548 1548 1547 1547 1546 1545 1544 1544 1542 1541 1540 1539 1538 1537 1536 1535 1534 1532 1531 1530 1529 1528 1527 1526 1525 1524 1523 1523 1522 1521 1520 1519 1519 1518 1518 1517 1517
1538 1539 1540 1541 1542 1542 1543 1543 1543 1543 1543 1543 1543 1544 1544 1544 1545 1546 1546 1547 1547 1548 1549 1549 1549 1550 1550 1550 1550 1550 1550 1550 1550 1550 1550 1550 1549 1549 1549 1548 1547 1546 1545 1545 1544 1543 1542 1540 1539 1538 1536 1535 1534 1533 1532 1531 1530 1529 1528 1527 1526 1525 1524 1523 1522 1521 1520 1519 1518 1517 1517 1516 1516 1516
1539 1540 1540 1541 1542 1542 1542 1543 1543 1543 1543 1543 1543 1544 1544 1545 1545 1546 1547 1548 1548 1549 1549 1550 1550 1550 1550 1551 1551 1551 1551 1551 1551 1551 1550 1550 1550 1549 1549 1548 1547 1547 1546 1545 1544 1543 1542 1541 1539 1538 1536 1535 1533 1532 1531 1531 1530 1529 1528 1527 1526 1525 1523 1522 1521 1520 1519 1518 1517 1516 1516 1515 1514 1514
1539 1540 1541 1541 1542 1542 1543 1543 1543 1543 1543 1543 1544 1544 1545 1545 1546 1547 1548 1549 1549 1550 1550 1550 1550 1551 1551 1551 1551 1552 1552 1552 1551 1551 1551 1550 1550 1549 1549 1548 1548 1547 1547 1546 1545 1544 1542 1541 1539 1538 1536 1535 1534 1532 1531 1530 1529 1529 1528 1526 1525 1525 1523 1522 1521 1520 1519 1517 1516 1515 1515 1514 1513 1513
1540 1540 1541 1541 1542 1542 1542 1543 1543 1543 1543 1544 1544 1545 1546 1547 1547 1548 1548 1549 1550 1550 1550 1551 1551 1551 1551 1552 1552 1552 1552 1551 1551 1551 1551 1550 1550 1549 1549 1548 1548 1547 1547 1546 1544 1543 1541 1540 1538 1537 1536 1535 1534 1533 1532 1530 1529 1529 1528 1527 1525 1524 1523 1522 1520 1519 1518 1516 1515 1514 1513 1512 1512 1511
1539 1540 1540 1541 1541 1542 1542 1543 1543 1543 1544 1545 1545 1546 1547 1547 1548 1548 1549 1550 1550 1550 1551 1551 1551 1552 1552 1552 1552 1552 1551 1551 1551 1551 1550 1550 1549 1549 1549 1548 1548 1547 1546 1545 1543 1542 1540 1539 1538 1537 1536 1535 1534 1533 1532 1531 1530 1529 1528 1527 1525 1523 1522 1521 1520 1518 1517 1516 1514 1513 1512 1511 1510 1510
1540 1540 1541 1541 1542 1542 1543 1543 1544 1544 1545 1545 1546 1547 1547 1548 1548 1549 1550 1550 1551 1551 1552 1552 1552 1552 1552 1552 1552 1552 1551 1551 1551 1550 1550 1549 1549 1549 1548 1548 1547 1546 1545 1544 1542 1541 1540 1539 1538 1537 1536 1535 1534 1533 1532 1531 1530 1529 1527 1526 1525 1523 1522 1520 1519 1518 1516 1515 1514 1512 1511 1510 1509 1508
1541 1541 1541 1542 1542 1542 1543 1544 1544 1545 1545 1546 1547 1547 1548 1549 1549 1550 1550 1551 1551 1552 1552 1552 1552 1552 1552 1552 1552 1552 1551 1551 1551 1550 1550 1549 1549 1548 1548 1547 1546 1545 1544 1543 1542 1542 1541 1540 1538 1537 1536 1535 1534 1533 1532 1531 1530 1528 1527 1526 1524 1523 1522 1520 1519 1517 1516 1515 1513 1512 1511 1509 1508 1508
1542 1542 1542 1542 1543 1543 1544 1544 1545 1545 1546 1546 1547 1548 1548 1549 1550 1550 1551 1551 1552 1552 1553 1553 1553 1553 1553 1552 1552 1552 1551 1551 1551 1550 1549 1549 1548 1548 1547 1547 1546 1545 1544 1544 1543 1542 1541 1540 1539 1537 1536 1535 1534 1533 1532 1531 1530 1528 1527 1525 1524 1522 1521 1520 1519 1518 1516 1514 1513 1511 1510 1509 1508 1507
1542 1543 1543 1543 1543 1544 1544 1545 1545 1546 1547 1547 1548 1548 1549 1550 1550 1551 1551 1552 1552 1553 1553 1553 1553 1553 1553 1553 1552 1552 1551 1551 1550 1550 1549 1548 1548 1547 1547 1546 1546 1545 1544 1544 1543 1542 1541 1540 1539 1538 1536 1535 1535 1534 1532 1531 1530 1529 1527 1525 1524 1522 1521 1519 1518 1517 1516 1514 1512 1511 1509 1508 1507 1506
1543 1544 1544 1544 1545 1545 1545 1546 1546 1547 1547 1548 1548 1549 1550 1550 1551 1551 1551 1552 1552 1553 1553 1553 1553 1553 1553 1553 1552 1552 1551 1550 1550 1549 1549 1548 1548 1547 1547 1546 1546 1545 1545 1544 1543 1542 1542 1541 1540 1538 1537 1536 1535 1534 1533 1532 1530 1529 1527 1525 1523 1522 1520 1518 1517 1516 1514 1513 1511 1510 1508 1507 1506 1505